Regional Weather Roundup
Issued by NWS

Home | Current Version | Previous Version | Graphics & Text | Print | Product List | Glossary On
Versions: 1 2 3 4 5 6 7 8 9 10 11 12 13 14 15 16 17 18 19 20 21 22 23 24 25 26 27 28 29 30 31 32 33 34 35 36 37 38 39 40 41 42 43 44 45 46 47 48 49 50
000
ASUS43 KMKX 210811
RWRWI

WISCONSIN REGIONAL WEATHER ROUNDUP
NATIONAL WEATHER SERVICE MILWAUKEE/SULLIVAN WI
300 AM CDT TUE OCT 21 2014

NOTE: "FAIR" INDICATES FEW OR NO CLOUDS BELOW 12,000 FEET WITH NO
SIGNIFICANT WEATHER AND/OR OBSTRUCTIONS TO VISIBILITY.

WIZ001-002-006>008-014>016-023>028-210900-
NORTHWEST WISCONSIN

CITY           SKY/WX    TMP DP  RH WIND       PRES   REMARKS
SUPERIOR ARPT  CLOUDY    45  39  81 E10       30.17R
ASHLAND        CLOUDY    43  37  79 NE7       30.18R
HAYWARD        CLOUDY    44  38  79 NE7       30.15R
SIREN          PTCLDY    34  33  94 CALM      30.15R
CUMBERLAND     CLEAR     41  34  75 CALM      30.13R
RICE LAKE      CLOUDY    45  37  72 NE3       30.15R
CHETEK         CLOUDY    46  38  71 NE5       30.13R
LADYSMITH      CLOUDY    45  37  76 NE6       30.15R
EAU CLAIRE     CLEAR     34  33  96 N3        30.12R
MENOMONIE      CLEAR     38  36  94 CALM      30.12R
NEW RICHMOND   CLEAR     33  33 100 CALM      30.14R
OSCEOLA        PTCLDY    33  33 100 CALM      30.17R FOG
$$

WIZ003>005-009-010-017-018-210900-
NORTH CENTRAL WISCONSIN

CITY           SKY/WX    TMP DP  RH WIND       PRES   REMARKS
MANITOWISH WTR CLOUDY    38  37  97 N5        30.13S WCI  35
ARBOR VITAE    CLOUDY    39  37  90 N3        30.13R
WOODRUFF       CLOUDY    39  37  90 N3        30.13R
RHINELANDER    CLOUDY    39  35  86 VRB6      30.12R WCI  35
EAGLE RIVER    CLOUDY    38  37  94 N6        30.11S WCI  34
LAND O LAKES   CLOUDY    39  37  92 N8        30.13R WCI  33
PHILLIPS       CLOUDY    40  36  86 N5        30.13R
TOMAHAWK       CLOUDY    40  34  78 CALM      30.13R
MEDFORD        PTCLDY    38  35  87 N6        30.12R WCI  34
MERRILL        CLOUDY    41  35  79 NE8       30.12R
$$

WIZ029-030-035-036-043>047-210900-
CENTRAL WISCONSIN

CITY           SKY/WX    TMP DP  RH WIND       PRES   REMARKS
WAUSAU         CLEAR     41  34  76 N10G18    30.10R
MOSINEE        CLEAR     39  36  87 N10       30.11R WCI  32
MARSHFIELD     MOCLDY    44  37  76 NE7       30.10R
STEVENS POINT  CLEAR     39  35  85 N5        30.11R
WAUPACA        MOCLDY    44  40  86 N6        30.09R
WAUTOMA        CLOUDY    44  39  82 CALM      30.09R
WISC RAPIDS    MOCLDY    44  38  79 N7        30.11R
CAMP DOUGLAS   MOCLDY    37  37 100 NW3       30.10R
$$

WIZ011>013-019>022-031-037>040-048>050-210900-
NORTHEAST WISCONSIN

CITY           SKY/WX    TMP DP  RH WIND       PRES   REMARKS
ANTIGO         CLOUDY    39  34  81 N15G21    30.10R WCI  31
SHAWANO        CLOUDY    44  38  80 N8        30.09R
OCONTO         CLOUDY    44  39  83 N7        30.07R
STURGEON BAY   CLOUDY    45  37  76 N17       30.06R
GREEN BAY      CLOUDY    44  38  79 N7        30.07R
MANITOWOC      CLOUDY    46  39  76 N9        30.05R
APPLETON       CLOUDY    43  36  75 N10       30.08R
CLINTONVILLE   CLOUDY    41  36  81 N6        30.09R
OSHKOSH        CLOUDY    45  38  76 N9        30.07R
$$

WIZ032>034-041-042-053>061-210900-
SOUTHWEST WISCONSIN

CITY           SKY/WX    TMP DP  RH WIND       PRES   REMARKS
LA CROSSE      CLEAR     42  38  85 CALM      30.11R
SPARTA         CLEAR     32  32  99 CALM      30.11R
VIROQUA        CLEAR     37  37 100 CALM      30.09S
BOSCOBEL       CLEAR     35  33  92 CALM      30.10S FOG
PRAIRIE DU CHI CLEAR     39  37  92 CALM      30.10R
PLATTEVILLE    CLEAR     40  37  91 CALM      30.09R
$$

WIZ056-057-062-063-064-067-068-210900-
SOUTH CENTRAL WISCONSIN

CITY           SKY/WX    TMP DP  RH WIND       PRES   REMARKS
REEDSBURG      PTCLDY    46  38  75 NE3       30.08R
BARABOO/DELLS  CLOUDY    47  38  69 N5        30.08R
LONE ROCK      CLEAR     43  37  79 W5        30.09R
MINERAL POINT  CLEAR     41  37  87 N3        30.07S
MADISON        CLOUDY    48  40  73 N5        30.07R
MIDDLETON      CLOUDY    48  40  74 N5        30.07S
WATERTOWN      CLOUDY    46  40  78 N5        30.06R
MONROE         CLEAR     43  37  81 N8        30.06R
JANESVILLE     CLOUDY    50  41  71 N5        30.05S
$$

WIZ051-052-058>065-066-070>072-210900-
SOUTHEAST WISCONSIN

CITY           SKY/WX    TMP DP  RH WIND       PRES   REMARKS
MILWAUKEE      CLOUDY    48  40  73 N10       30.04R
WAUKESHA       CLOUDY    45  37  76 N6        30.06R
MILWAUKEE/TIMM CLOUDY    45  37  76 N6        30.06R
RACINE         CLOUDY    49  41  74 N10       30.05R
BURLINGTON     CLOUDY    46  39  74 N6        30.04R
KENOSHA        CLOUDY    49  42  77 VRB5      30.04R
FOND DU LAC    CLOUDY    46  36  68 N13       30.07R
SHEBOYGAN      CLOUDY    45  39  79 N8        30.05R
WEST BEND      CLOUDY    45  37  76 NW7       30.05R
JUNEAU         CLOUDY    46  38  75 N7        30.07S
$$

LSZ147-162-210900-
LAKE SUPERIOR

STATION/POSITION TIME  TEMP    WIND        PRES    WAVE
                       AIR SEA DIR/SP/G            HT/PER
                 (UTC) (F)     (DEG/KT/KT) (MB)    (FT/S)
W MID LAKE BUOY  0750   41 46   30/ 12/ 14 1022.6R   3/ 5
DEVILS ISLAND    0800   43      60/ 18/ 21 1022.8R
PORT WING        0740   45      70/  6/  9 1022.0R
SAXON HARBOR     0700   46      70/  6/ 16 1021.3R
$$

LMZ867-665-643>646-210900-
LAKE MICHIGAN

STATION/POSITION TIME  TEMP    WIND        PRES    WAVE
                       AIR SEA DIR/SP/G            HT/PER
                 (UTC) (F)     (DEG/KT/KT) (MB)    (FT/S)
CHAMBERS ISLAND  0700   45     330/ 19/ 24 1017.6R
N MID LAKE BUOY  0750   47 51  360/ 19/ 23 1016.6R   4/ 5
NORTHPORT PIER   0800   46     350/ 18     1017.6R
KEWAUNEE LAKESHO 0700   46     340/  6/ 12 1016.2R
SHEBOYGAN LAKESH 0800   46 50  340/ 11/ 13 1017.9R
PORT WASHINGTON  0700   47     340/  4/  7 1017.9R
ATWATER BUOY     0800   49     330/ 12/ 16 1018.3R
MILWAUKEE LAKESH 0700   49     340/  9/ 12   N/A
S MID LAKE BUOY  0750   51 54  350/ 19/ 23 1016.0R   4/ 6
KENOSHA   LAKESH 0800   50     340/  9/ 12 1016.9R
$$

TC  - TEMPERATURE IN CELSIUS
VSB - VISIBILITY IN STATUTE MILES
WCI - WIND CHILL INDEX
HX  - HEAT INDEX



USA.gov is the U.S. government's official web portal to all federal, state and local government web resources and services.